Regional Weather Roundup
Issued by NWS Northern Indiana

Home | Current Version | Previous Version | Graphics & Text | Print | Product List | Glossary On
Versions: 1 2 3 4 5 6 7 8 9 10 11 12 13 14 15 16 17 18 19 20 21 22 23 24 25 26 27 28 29 30 31 32 33 34 35 36 37 38 39 40 41 42 43 44 45 46 47 48 49 50
000
ASUS43 KIWX 011700
RWRIWX

KIWX WEATHER ROUNDUP
NATIONAL WEATHER SERVICE NORTHERN INDIANA
100 PM EDT TUE SEP 01 2015

NOTE: "FAIR" INDICATES FEW OR NO CLOUDS BELOW 12,000 FEET WITH NO
SIGNIFICANT WEATHER AND/OR OBSTRUCTIONS TO VISIBILITY.

* THESE STATIONS ARE NOT UNDER NWS QUALITY CONTROL. THEY ALSO MAY NOT
  REPORT WEATHER SUCH AS PRECIPITATION OR FOG.

INZ001>027-011800-
NORTHERN INDIANA

CITY           SKY/WX    TMP DP  RH WIND       PRES   REMARKS
GARY*          PTSUNNY   84  72  65 S14       30.08R
SOUTH BEND     MOSUNNY   83  72  69 S14       30.09F
ELKHART*       MOSUNNY   84  72  65 SW6       30.09F
GOSHEN         PTSUNNY   85  71  63 S10       30.09F
ANGOLA*        PTSUNNY   84  72  65 VRB3      30.11S
FORT WAYNE     MOSUNNY   83  71  67 W8        30.12F
PERU/GRISSOM   PTSUNNY   84  70  63 W14G20    30.11S

$$
INZ028>050-011800-
CENTRAL INDIANA

CITY           SKY/WX    TMP DP  RH WIND       PRES   REMARKS
LAFAYETTE      MOSUNNY   80  64  58 SW14      30.11F
KOKOMO*        MOSUNNY   79  70  73 SW8       30.13S
MUNCIE*        MOSUNNY   80  69  69 W9        30.13F
INDIANAPOLIS   PTSUNNY   82  67  60 SW15      30.13F

$$
MIZ043>046-050>051-056>058-064>065-071>073-077>080-011800-
SOUTHWEST LOWER MICHIGAN

CITY           SKY/WX    TMP DP  RH WIND       PRES   REMARKS
BATTLE CREEK   MOSUNNY   85  70  60 SW9       30.09F
BENTON HARBOR  MOSUNNY   84  73  69 S9        30.06F
COLDWATER*     PTSUNNY   84  70  63 S7        30.10F
HILLSDALE*     MOSUNNY   84  70  62 S6        30.12S
HOLLAND        SUNNY     85  73  67 SW9       30.07F
GRAND RAPIDS   MOSUNNY   85  72  65 SW7       30.06F
KALAMAZOO      PTSUNNY   85  70  60 S10       30.08F
STURGIS*       MOSUNNY   82  73  74 SW9       30.10S
THREE RIVERS*  FAIR      85  70  61 S9        30.09F

$$
OHZ001>008-015>018-024>025-011800-
NORTHWEST OHIO

CITY           SKY/WX    TMP DP  RH WIND       PRES   REMARKS
DEFIANCE       MOSUNNY   86  70  58 SW9       30.11F
FINDLAY        PTSUNNY   84  70  62 W6        30.11F
TOLEDO EXPRESS MOSUNNY   84  69  60 SW10      30.10S
TOLEDO METCALF MOSUNNY   85  69  58 SW8       30.10F
LIMA           MOSUNNY   84  68  58 S9        30.13F

$$
AND FOR LAKE MICHIGAN COASTAL AND OPEN LAKE BUOY OBSERVATIONS

STATION/POSITION TEMP    WIND        PRES    VSBY  WAVE
                 AIR SEA DIR/SP/G                  HT/PER
                 (F)     (DEG/KT/KT) (MB)    (MI)  (FT/S)
CALUMET HARBOR    81     180/  6/  9   N/A
MICHIGAN CITY     80     150/ 10/ 11   N/A
BURNS HARBOR      81     180/  8/ 10 1018.6S
SAINT JOSEPH      78     190/  4/  6 1018.6F
SOUTH LAKE BUOY   71 70  180/ 12/ 14 1016.8F         1/ 3
4 MI NW BRIDGMAN  74 72  250/  4/  4   N/A           1
MICHIGAN CITY     76 73  200/  6/  6   N/A           0

$$
&&



USA.gov is the U.S. government's official web portal to all federal, state and local government web resources and services.